NOAA 16 DEB, 41370

Orbit data source: Space-Track

NOAA 16 DEB, 41370 is space debris in SSO originally from a launch on Thu, 21 Sep 2000 UTC launched from the Air Force Western Test Range (AFWTR). Debris objects in space refer to the collection of defunct objects orbiting the Earth. Examples of debris include non-operational satellites, rocket bodies, and fragments generated from explosions, collisions, or faulty payload assembly.

Loading next visibility...
Identifier
41370, 2000-055JP
Orbit
SSO
Country
Flag of USUS
Related business
Manufacturer
Unknown
Mission
Spacecraft
Bus & Motor
Unknown
Mass
Unknown
Launch date (UTC)
2000-09-21 (25 years ago)
Launch vehicle
Unknown
Launch site
Air Force Western Test Range (AFWTR)
Object type
Payload
Rocket body
Debris
Shape & HBR
Unknown shape, 0.1 m
Radar Cross Section
Small (<0.1 m²)

Expand to show TLE details & history
Last TLE update: 21 hours ago

TLE from 21 hours ago
0 NOAA 16 DEB
1 41370U 00055JP  25293.70283142  .00068013  00000-0  71252-2 0  9990
2 41370  98.8914 203.8358 0030664 200.3237 159.6759 14.88901818519972
Epoch: 2025-10-20T16:52Z
TLE epoch observation values (Epoch: 2025-10-20T16:52:04.634Z)
Latitude
0.00001°
Longitude
-78.58485°
Altitude
624.449 km
Speed
7.536 km/s
True Right ascension
13h 35m 20s
True Declination
0° 00' 00"
Sunlit
Object was in daylight at epoch
Visualization orbit readout
Latitude
Unknown
Longitude
Unknown
Altitude
Unknown
Speed
Unknown
Apparent Right ascension
Unknown
Apparent Declination
Unknown
Sunlit
N/A
Visualization observer readout
Local Sidereal Time
09:04:25
Azimuth
Unknown
Elevation
Unknown
Doppler factor
Unknown
Orbital elements
Apogee altitude
619.835 km
Perigee altitude
577.049 km
Semi-major axis
6,976.579 km
Eccentricity
0.00307
Inclination
98.8914°
RAAN
203.8358°
Arg. of periapsis
200.3237°
True anomaly
159.79751°
Mean anomaly
159.6759°
Eccentric anomaly
159.73675°
Mean motion
3.7246 °/min
Orbital period
96.65 mins
BSTAR
0.0071252
Loading maneuver chart data...
Computing Atmospheric mass density...

Documentation

Showing up to 5 results
|